Wetterdaten: Sonntag, 08.01.2017
Datum Zeit Temperatur Luftfeuchte Luftdruck Regen Wind Richtung Richtung Sonnenschein ET UV Solar Taupunkt Windchill Windben
08.01.2017 00:00 -2,9 C 94 % 1029,9 hPa 0,0 l/m 0,2 km/h (0 Bft) W 279 0 min 0,000 mm 0,0 UV-I 0 W/m -3,7 C -2,9 C 1,6 km/h (1 Bft)
08.01.2017 00:05 -2,8 C 94 % 1029,9 hPa 0,0 l/m 0,3 km/h (0 Bft) S-SW 206 0 min 0,000 mm 0,0 UV-I 0 W/m -3,6 C -2,8 C 3,2 km/h (1 Bft)
08.01.2017 00:10 -2,8 C 94 % 1029,9 hPa 0,0 l/m 0,0 km/h (0 Bft) W-SW 244 0 min 0,000 mm 0,0 UV-I 0 W/m -3,6 C -2,8 C 1,6 km/h (1 Bft)
08.01.2017 00:15 -2,8 C 94 % 1029,9 hPa 0,0 l/m 0,2 km/h (0 Bft) W 271 0 min 0,000 mm 0,0 UV-I 0 W/m -3,6 C -2,8 C 3,2 km/h (1 Bft)
08.01.2017 00:20 -2,7 C 94 % 1029,8 hPa 0,0 l/m 0,3 km/h (0 Bft) W-SW 258 0 min 0,000 mm 0,0 UV-I 0 W/m -3,5 C -2,7 C 3,2 km/h (1 Bft)
08.01.2017 00:25 -2,7 C 94 % 1029,8 hPa 0,0 l/m 0,8 km/h (0 Bft) W-NW 294 0 min 0,000 mm 0,0 UV-I 0 W/m -3,5 C -2,7 C 4,8 km/h (1 Bft)
08.01.2017 00:30 -2,6 C 94 % 1029,8 hPa 0,0 l/m 1,3 km/h (1 Bft) W 276 0 min 0,000 mm 0,0 UV-I 0 W/m -3,4 C -2,6 C 6,4 km/h (2 Bft)
08.01.2017 00:35 -2,6 C 94 % 1029,6 hPa 0,0 l/m 1,0 km/h (0 Bft) W 263 0 min 0,000 mm 0,0 UV-I 0 W/m -3,4 C -2,6 C 4,8 km/h (1 Bft)
08.01.2017 00:40 -2,6 C 94 % 1029,6 hPa 0,0 l/m 0,4 km/h (0 Bft) W 268 0 min 0,000 mm 0,0 UV-I 0 W/m -3,4 C -2,6 C 3,2 km/h (1 Bft)
08.01.2017 00:45 -2,4 C 94 % 1029,6 hPa 0,0 l/m 0,0 km/h (0 Bft) W-SW 258 0 min 0,000 mm 0,0 UV-I 0 W/m -3,2 C -2,4 C 1,6 km/h (1 Bft)
08.01.2017 00:50 -2,3 C 94 % 1029,6 hPa 0,0 l/m 0,3 km/h (0 Bft) W-NW 286 0 min 0,000 mm 0,0 UV-I 0 W/m -3,1 C -2,3 C 3,2 km/h (1 Bft)
08.01.2017 00:55 -2,2 C 94 % 1029,5 hPa 0,0 l/m 0,9 km/h (0 Bft) W 263 0 min 0,000 mm 0,0 UV-I 0 W/m -3,0 C -2,2 C 4,8 km/h (1 Bft)
08.01.2017 01:00 -2,1 C 94 % 1029,5 hPa 0,0 l/m 1,4 km/h (1 Bft) W 279 0 min 0,000 mm 0,0 UV-I 0 W/m -2,9 C -2,1 C 8,0 km/h (2 Bft)
08.01.2017 01:05 -2,0 C 94 % 1029,5 hPa 0,0 l/m 2,0 km/h (1 Bft) W-SW 254 0 min 0,000 mm 0,0 UV-I 0 W/m -2,8 C -2,0 C 9,7 km/h (2 Bft)
08.01.2017 01:10 -2,0 C 94 % 1029,5 hPa 0,0 l/m 2,0 km/h (1 Bft) W 267 0 min 0,000 mm 0,0 UV-I 0 W/m -2,8 C -2,0 C 8,0 km/h (2 Bft)
08.01.2017 01:15 -1,9 C 94 % 1029,4 hPa 0,0 l/m 1,2 km/h (1 Bft) W 264 0 min 0,000 mm 0,0 UV-I 0 W/m -2,7 C -1,9 C 6,4 km/h (2 Bft)
08.01.2017 01:20 -1,9 C 94 % 1029,4 hPa 0,0 l/m 1,3 km/h (1 Bft) W 271 0 min 0,000 mm 0,0 UV-I 0 W/m -2,7 C -1,9 C 6,4 km/h (2 Bft)
08.01.2017 01:25 -1,8 C 94 % 1029,4 hPa 0,0 l/m 2,2 km/h (1 Bft) W 265 0 min 0,000 mm 0,0 UV-I 0 W/m -2,6 C -1,8 C 6,4 km/h (2 Bft)
08.01.2017 01:30 -1,8 C 94 % 1029,5 hPa 0,0 l/m 2,2 km/h (1 Bft) W-NW 298 0 min 0,000 mm 0,0 UV-I 0 W/m -2,6 C -1,8 C 6,4 km/h (2 Bft)
08.01.2017 01:35 -1,7 C 94 % 1029,5 hPa 0,0 l/m 0,9 km/h (0 Bft) W-NW 294 0 min 0,000 mm 0,0 UV-I 0 W/m -2,5 C -1,7 C 6,4 km/h (2 Bft)
08.01.2017 01:40 -1,7 C 94 % 1029,5 hPa 0,0 l/m 0,9 km/h (0 Bft) W 267 0 min 0,000 mm 0,0 UV-I 0 W/m -2,5 C -1,7 C 4,8 km/h (1 Bft)
08.01.2017 01:45 -1,7 C 94 % 1029,7 hPa 0,0 l/m 0,1 km/h (0 Bft) W 265 0 min 0,000 mm 0,0 UV-I 0 W/m -2,5 C -1,7 C 3,2 km/h (1 Bft)
08.01.2017 01:50 -1,6 C 94 % 1029,6 hPa 0,0 l/m 0,0 km/h (0 Bft) W-NW 294 0 min 0,000 mm 0,0 UV-I 0 W/m -2,4 C -1,6 C 0,0 km/h (0 Bft)
08.01.2017 01:55 -1,6 C 94 % 1029,6 hPa 0,0 l/m 0,6 km/h (0 Bft) W-SW 248 0 min 0,000 mm 0,0 UV-I 0 W/m -2,4 C -1,6 C 6,4 km/h (2 Bft)
08.01.2017 02:00 -1,5 C 94 % 1029,5 hPa 0,0 l/m 0,7 km/h (0 Bft) SW 232 0 min 0,000 mm 0,0 UV-I 0 W/m -2,3 C -1,5 C 4,8 km/h (1 Bft)
08.01.2017 02:05 -1,4 C 94 % 1029,4 hPa 0,0 l/m 0,3 km/h (0 Bft) W-SW 258 0 min 0,000 mm 0,0 UV-I 0 W/m -2,2 C -1,4 C 3,2 km/h (1 Bft)
08.01.2017 02:10 -1,4 C 94 % 1029,3 hPa 0,0 l/m 0,1 km/h (0 Bft) W-NW 283 0 min 0,000 mm 0,0 UV-I 0 W/m -2,2 C -1,4 C 3,2 km/h (1 Bft)
08.01.2017 02:15 -1,4 C 94 % 1029,2 hPa 0,0 l/m 1,8 km/h (1 Bft) W-NW 292 0 min 0,000 mm 0,0 UV-I 0 W/m -2,2 C -1,4 C 6,4 km/h (2 Bft)
08.01.2017 02:20 -1,4 C 94 % 1029,2 hPa 0,0 l/m 1,5 km/h (1 Bft) W 266 0 min 0,000 mm 0,0 UV-I 0 W/m -2,2 C -1,4 C 8,0 km/h (2 Bft)
08.01.2017 02:25 -1,4 C 94 % 1029,2 hPa 0,0 l/m 1,6 km/h (1 Bft) W 274 0 min 0,000 mm 0,0 UV-I 0 W/m -2,2 C -1,4 C 9,7 km/h (2 Bft)
08.01.2017 02:30 -1,3 C 94 % 1029,2 hPa 0,0 l/m 0,7 km/h (0 Bft) W 261 0 min 0,000 mm 0,0 UV-I 0 W/m -2,1 C -1,3 C 6,4 km/h (2 Bft)
08.01.2017 02:35 -1,3 C 94 % 1029,0 hPa 0,0 l/m 1,2 km/h (1 Bft) W 269 0 min 0,000 mm 0,0 UV-I 0 W/m -2,1 C -1,3 C 6,4 km/h (2 Bft)
08.01.2017 02:40 -1,3 C 94 % 1029,1 hPa 0,0 l/m 0,7 km/h (0 Bft) W-NW 299 0 min 0,000 mm 0,0 UV-I 0 W/m -2,1 C -1,3 C 4,8 km/h (1 Bft)
08.01.2017 02:45 -1,3 C 94 % 1029,1 hPa 0,0 l/m 1,4 km/h (1 Bft) W 275 0 min 0,000 mm 0,0 UV-I 0 W/m -2,1 C -1,3 C 6,4 km/h (2 Bft)
08.01.2017 02:50 -1,3 C 94 % 1029,1 hPa 0,0 l/m 0,6 km/h (0 Bft) SW 227 0 min 0,000 mm 0,0 UV-I 0 W/m -2,1 C -1,3 C 3,2 km/h (1 Bft)
08.01.2017 02:55 -1,2 C 94 % 1029,2 hPa 0,0 l/m 1,1 km/h (1 Bft) W-SW 248 0 min 0,000 mm 0,0 UV-I 0 W/m -2,0 C -1,2 C 8,0 km/h (2 Bft)
08.01.2017 03:00 -1,2 C 94 % 1029,2 hPa 0,0 l/m 0,4 km/h (0 Bft) W-NW 299 0 min 0,000 mm 0,0 UV-I 0 W/m -2,0 C -1,2 C 6,4 km/h (2 Bft)
08.01.2017 03:05 -1,2 C 94 % 1029,2 hPa 0,0 l/m 0,8 km/h (0 Bft) W-NW 294 0 min 0,000 mm 0,0 UV-I 0 W/m -2,0 C -1,2 C 6,4 km/h (2 Bft)
08.01.2017 03:10 -1,2 C 94 % 1029,2 hPa 0,0 l/m 2,5 km/h (1 Bft) W-NW 294 0 min 0,000 mm 0,0 UV-I 0 W/m -2,0 C -1,2 C 8,0 km/h (2 Bft)
08.01.2017 03:15 -1,2 C 94 % 1029,2 hPa 0,0 l/m 2,6 km/h (1 Bft) W-NW 287 0 min 0,000 mm 0,0 UV-I 0 W/m -2,0 C -1,2 C 8,0 km/h (2 Bft)
08.01.2017 03:20 -1,2 C 94 % 1029,2 hPa 0,0 l/m 2,8 km/h (1 Bft) W-NW 294 0 min 0,000 mm 0,0 UV-I 0 W/m -2,0 C -1,2 C 8,0 km/h (2 Bft)
08.01.2017 03:25 -1,2 C 94 % 1029,2 hPa 0,0 l/m 1,7 km/h (1 Bft) NW 307 0 min 0,000 mm 0,0 UV-I 0 W/m -2,0 C -1,2 C 6,4 km/h (2 Bft)
08.01.2017 03:30 -1,2 C 94 % 1029,2 hPa 0,0 l/m 2,1 km/h (1 Bft) W-NW 283 0 min 0,000 mm 0,0 UV-I 0 W/m -2,0 C -1,2 C 9,7 km/h (2 Bft)
08.01.2017 03:35 -1,1 C 94 % 1029,4 hPa 0,0 l/m 0,1 km/h (0 Bft) W-NW 296 0 min 0,000 mm 0,0 UV-I 0 W/m -1,9 C -1,1 C 1,6 km/h (1 Bft)
08.01.2017 03:40 -1,1 C 94 % 1029,3 hPa 0,0 l/m 0,8 km/h (0 Bft) N 11 0 min 0,000 mm 0,0 UV-I 0 W/m -1,9 C -1,1 C 4,8 km/h (1 Bft)
08.01.2017 03:45 -1,1 C 94 % 1029,4 hPa 0,0 l/m 0,6 km/h (0 Bft) NW 305 0 min 0,000 mm 0,0 UV-I 0 W/m -1,9 C -1,1 C 8,0 km/h (2 Bft)
08.01.2017 03:50 -1,0 C 94 % 1029,4 hPa 0,0 l/m 0,3 km/h (0 Bft) W 271 0 min 0,000 mm 0,0 UV-I 0 W/m -1,8 C -1,0 C 6,4 km/h (2 Bft)
08.01.2017 03:55 -0,9 C 94 % 1029,4 hPa 0,0 l/m 0,2 km/h (0 Bft) W-NW 287 0 min 0,000 mm 0,0 UV-I 0 W/m -1,7 C -0,9 C 3,2 km/h (1 Bft)
08.01.2017 04:00 -0,9 C 94 % 1029,4 hPa 0,0 l/m 0,5 km/h (0 Bft) W-NW 286 0 min 0,000 mm 0,0 UV-I 0 W/m -1,7 C -0,9 C 6,4 km/h (2 Bft)
08.01.2017 04:05 -0,9 C 94 % 1029,2 hPa 0,0 l/m 2,5 km/h (1 Bft) SW 236 0 min 0,000 mm 0,0 UV-I 0 W/m -1,7 C -0,9 C 9,7 km/h (2 Bft)
08.01.2017 04:10 -0,9 C 94 % 1029,2 hPa 0,0 l/m 1,5 km/h (1 Bft) W-SW 257 0 min 0,000 mm 0,0 UV-I 0 W/m -1,7 C -0,9 C 6,4 km/h (2 Bft)
08.01.2017 04:15 -0,9 C 94 % 1029,3 hPa 0,0 l/m 2,2 km/h (1 Bft) W 275 0 min 0,000 mm 0,0 UV-I 0 W/m -1,7 C -0,9 C 11,3 km/h (2 Bft)
08.01.2017 04:20 -0,9 C 94 % 1029,3 hPa 0,0 l/m 0,4 km/h (0 Bft) NW 318 0 min 0,000 mm 0,0 UV-I 0 W/m -1,7 C -0,9 C 4,8 km/h (1 Bft)
08.01.2017 04:25 -0,8 C 94 % 1029,3 hPa 0,0 l/m 1,2 km/h (1 Bft) W-NW 291 0 min 0,000 mm 0,0 UV-I 0 W/m -1,6 C -0,8 C 8,0 km/h (2 Bft)
08.01.2017 04:30 -0,8 C 94 % 1029,2 hPa 0,0 l/m 1,2 km/h (1 Bft) NW 305 0 min 0,000 mm 0,0 UV-I 0 W/m -1,6 C -0,8 C 4,8 km/h (1 Bft)
08.01.2017 04:35 -0,8 C 94 % 1029,3 hPa 0,0 l/m 0,2 km/h (0 Bft) W-NW 300 0 min 0,000 mm 0,0 UV-I 0 W/m -1,6 C -0,8 C 3,2 km/h (1 Bft)
08.01.2017 04:40 -0,8 C 94 % 1029,2 hPa 0,0 l/m 0,7 km/h (0 Bft) W 281 0 min 0,000 mm 0,0 UV-I 0 W/m -1,6 C -0,8 C 6,4 km/h (2 Bft)
08.01.2017 04:45 -0,8 C 94 % 1029,1 hPa 0,0 l/m 1,7 km/h (1 Bft) W 262 0 min 0,000 mm 0,0 UV-I 0 W/m -1,6 C -0,8 C 11,3 km/h (2 Bft)
08.01.2017 04:50 -0,8 C 94 % 1029,1 hPa 0,0 l/m 1,9 km/h (1 Bft) W 276 0 min 0,000 mm 0,0 UV-I 0 W/m -1,6 C -0,8 C 8,0 km/h (2 Bft)
08.01.2017 04:55 -0,8 C 94 % 1029,1 hPa 0,0 l/m 2,4 km/h (1 Bft) W 273 0 min 0,000 mm 0,0 UV-I 0 W/m -1,6 C -0,8 C 6,4 km/h (2 Bft)
08.01.2017 05:00 -0,8 C 94 % 1029,1 hPa 0,0 l/m 2,6 km/h (1 Bft) W 279 0 min 0,000 mm 0,0 UV-I 0 W/m -1,6 C -0,8 C 6,4 km/h (2 Bft)
08.01.2017 05:05 -0,8 C 94 % 1029,1 hPa 0,0 l/m 2,6 km/h (1 Bft) W 271 0 min 0,000 mm 0,0 UV-I 0 W/m -1,6 C -0,8 C 9,7 km/h (2 Bft)
08.01.2017 05:10 -0,8 C 94 % 1029,2 hPa 0,0 l/m 1,8 km/h (1 Bft) NW 308 0 min 0,000 mm 0,0 UV-I 0 W/m -1,6 C -0,8 C 8,0 km/h (2 Bft)
08.01.2017 05:15 -0,8 C 94 % 1029,2 hPa 0,0 l/m 1,7 km/h (1 Bft) W-NW 285 0 min 0,000 mm 0,0 UV-I 0 W/m -1,6 C -0,8 C 6,4 km/h (2 Bft)
08.01.2017 05:20 -0,8 C 94 % 1029,2 hPa 0,0 l/m 1,1 km/h (1 Bft) W 259 0 min 0,000 mm 0,0 UV-I 0 W/m -1,6 C -0,8 C 6,4 km/h (2 Bft)
08.01.2017 05:25 -0,8 C 94 % 1029,2 hPa 0,0 l/m 1,5 km/h (1 Bft) S-SW 207 0 min 0,000 mm 0,0 UV-I 0 W/m -1,6 C -0,8 C 6,4 km/h (2 Bft)
08.01.2017 05:30 -0,8 C 94 % 1029,2 hPa 0,0 l/m 1,2 km/h (1 Bft) W 279 0 min 0,000 mm 0,0 UV-I 0 W/m -1,6 C -0,8 C 4,8 km/h (1 Bft)
08.01.2017 05:35 -0,8 C 94 % 1029,1 hPa 0,0 l/m 1,6 km/h (1 Bft) W 281 0 min 0,000 mm 0,0 UV-I 0 W/m -1,6 C -0,8 C 8,0 km/h (2 Bft)
08.01.2017 05:40 -0,8 C 94 % 1029,1 hPa 0,0 l/m 1,6 km/h (1 Bft) W-NW 296 0 min 0,000 mm 0,0 UV-I 0 W/m -1,6 C -0,8 C 6,4 km/h (2 Bft)
08.01.2017 05:45 -0,8 C 93 % 1029,1 hPa 0,0 l/m 1,4 km/h (1 Bft) W 279 0 min 0,000 mm 0,0 UV-I 0 W/m -1,8 C -0,8 C 4,8 km/h (1 Bft)
08.01.2017 05:50 -0,9 C 93 % 1029,1 hPa 0,0 l/m 0,7 km/h (0 Bft) NW 325 0 min 0,000 mm 0,0 UV-I 0 W/m -1,9 C -0,9 C 3,2 km/h (1 Bft)
08.01.2017 05:55 -0,9 C 93 % 1029,1 hPa 0,0 l/m 2,1 km/h (1 Bft) W-NW 284 0 min 0,000 mm 0,0 UV-I 0 W/m -1,9 C -0,9 C 8,0 km/h (2 Bft)
08.01.2017 06:00 -1,0 C 93 % 1029,3 hPa 0,0 l/m 0,3 km/h (0 Bft) W-NW 288 0 min 0,000 mm 0,0 UV-I 0 W/m -2,0 C -1,0 C 4,8 km/h (1 Bft)
08.01.2017 06:05 -0,9 C 93 % 1029,3 hPa 0,0 l/m 0,1 km/h (0 Bft) W 279 0 min 0,000 mm 0,0 UV-I 0 W/m -1,9 C -0,9 C 3,2 km/h (1 Bft)
08.01.2017 06:10 -0,9 C 94 % 1029,3 hPa 0,0 l/m 2,1 km/h (1 Bft) N-NW 327 0 min 0,000 mm 0,0 UV-I 0 W/m -1,7 C -0,9 C 6,4 km/h (2 Bft)
08.01.2017 06:15 -0,8 C 93 % 1029,3 hPa 0,0 l/m 1,1 km/h (1 Bft) W-NW 301 0 min 0,000 mm 0,0 UV-I 0 W/m -1,8 C -0,8 C 8,0 km/h (2 Bft)
08.01.2017 06:20 -0,8 C 94 % 1029,3 hPa 0,0 l/m 0,7 km/h (0 Bft) W-NW 282 0 min 0,000 mm 0,0 UV-I 0 W/m -1,6 C -0,8 C 4,8 km/h (1 Bft)
08.01.2017 06:25 -0,8 C 94 % 1029,3 hPa 0,0 l/m 0,6 km/h (0 Bft) W-NW 293 0 min 0,000 mm 0,0 UV-I 0 W/m -1,6 C -0,8 C 4,8 km/h (1 Bft)
08.01.2017 06:30 -0,8 C 93 % 1029,3 hPa 0,0 l/m 0,3 km/h (0 Bft) W 268 0 min 0,000 mm 0,0 UV-I 0 W/m -1,8 C -0,8 C 4,8 km/h (1 Bft)
08.01.2017 06:35 -0,7 C 94 % 1029,4 hPa 0,0 l/m 0,0 km/h (0 Bft) W 280 0 min 0,000 mm 0,0 UV-I 0 W/m -1,5 C -0,7 C 1,6 km/h (1 Bft)
08.01.2017 06:40 -0,7 C 94 % 1029,5 hPa 0,0 l/m 0,0 km/h (0 Bft) W-NW 288 0 min 0,000 mm 0,0 UV-I 0 W/m -1,5 C -0,7 C 0,0 km/h (0 Bft)
08.01.2017 06:45 -0,7 C 94 % 1029,4 hPa 0,0 l/m 1,3 km/h (1 Bft) W-NW 285 0 min 0,000 mm 0,0 UV-I 0 W/m -1,5 C -0,7 C 6,4 km/h (2 Bft)
08.01.2017 06:50 -0,6 C 93 % 1029,5 hPa 0,0 l/m 1,5 km/h (1 Bft) NW 306 0 min 0,000 mm 0,0 UV-I 0 W/m -1,6 C -0,6 C 6,4 km/h (2 Bft)
08.01.2017 06:55 -0,6 C 93 % 1029,5 hPa 0,0 l/m 0,1 km/h (0 Bft) W-NW 298 0 min 0,000 mm 0,0 UV-I 0 W/m -1,6 C -0,6 C 3,2 km/h (1 Bft)
08.01.2017 07:00 -0,6 C 93 % 1029,6 hPa 0,0 l/m 0,0 km/h (0 Bft) W-NW 295 0 min 0,000 mm 0,0 UV-I 0 W/m -1,6 C -0,6 C 0,0 km/h (0 Bft)
08.01.2017 07:05 -0,6 C 93 % 1029,6 hPa 0,0 l/m 0,0 km/h (0 Bft) W-NW 295 0 min 0,000 mm 0,0 UV-I 0 W/m -1,6 C -0,6 C 0,0 km/h (0 Bft)
08.01.2017 07:10 -0,6 C 93 % 1029,8 hPa 0,0 l/m 0,0 km/h (0 Bft) W-NW 295 0 min 0,000 mm 0,0 UV-I 0 W/m -1,6 C -0,6 C 0,0 km/h (0 Bft)
08.01.2017 07:15 -0,6 C 94 % 1029,8 hPa 0,0 l/m 0,0 km/h (0 Bft) W-NW 295 0 min 0,000 mm 0,0 UV-I 0 W/m -1,4 C -0,6 C 0,0 km/h (0 Bft)
08.01.2017 07:20 -0,6 C 94 % 1029,9 hPa 0,0 l/m 0,0 km/h (0 Bft) W-NW 295 0 min 0,000 mm 0,0 UV-I 0 W/m -1,4 C -0,6 C 0,0 km/h (0 Bft)
08.01.2017 07:25 -0,5 C 94 % 1029,9 hPa 0,0 l/m 0,0 km/h (0 Bft) W-NW 295 0 min 0,000 mm 0,0 UV-I 0 W/m -1,3 C -0,5 C 0,0 km/h (0 Bft)
08.01.2017 07:30 -0,5 C 94 % 1029,9 hPa 0,0 l/m 0,0 km/h (0 Bft) W-NW 295 0 min 0,000 mm 0,0 UV-I 0 W/m -1,3 C -0,5 C 0,0 km/h (0 Bft)
08.01.2017 07:35 -0,4 C 94 % 1029,9 hPa 0,0 l/m 0,0 km/h (0 Bft) W-SW 254 0 min 0,000 mm 0,0 UV-I 0 W/m -1,2 C -0,4 C 1,6 km/h (1 Bft)
08.01.2017 07:40 -0,4 C 94 % 1029,8 hPa 0,0 l/m 0,9 km/h (0 Bft) NW 312 0 min 0,000 mm 0,0 UV-I 0 W/m -1,2 C -0,4 C 8,0 km/h (2 Bft)
08.01.2017 07:45 -0,4 C 94 % 1029,8 hPa 0,0 l/m 2,3 km/h (1 Bft) W-NW 293 0 min 0,000 mm 0,0 UV-I 0 W/m -1,2 C -0,4 C 6,4 km/h (2 Bft)
08.01.2017 07:50 -0,4 C 94 % 1029,8 hPa 0,0 l/m 2,2 km/h (1 Bft) NW 310 0 min 0,000 mm 0,0 UV-I 0 W/m -1,2 C -0,4 C 6,4 km/h (2 Bft)
08.01.2017 07:55 -0,4 C 94 % 1029,9 hPa 0,0 l/m 3,6 km/h (1 Bft) W-NW 292 0 min 0,000 mm 0,0 UV-I 0 W/m -1,2 C -0,4 C 9,7 km/h (2 Bft)
08.01.2017 08:00 -0,3 C 94 % 1029,8 hPa 0,0 l/m 1,5 km/h (1 Bft) W 273 0 min 0,000 mm 0,0 UV-I 0 W/m -1,1 C -0,3 C 4,8 km/h (1 Bft)
08.01.2017 08:05 -0,3 C 93 % 1029,7 hPa 0,0 l/m 1,3 km/h (1 Bft) W 269 0 min 0,000 mm 0,0 UV-I 0 W/m -1,3 C -0,3 C 4,8 km/h (1 Bft)
08.01.2017 08:10 -0,3 C 93 % 1029,9 hPa 0,0 l/m 1,1 km/h (1 Bft) W-NW 287 0 min 0,000 mm 0,0 UV-I 0 W/m -1,3 C -0,3 C 4,8 km/h (1 Bft)
08.01.2017 08:15 -0,3 C 93 % 1030,0 hPa 0,0 l/m 0,2 km/h (0 Bft) W-NW 286 0 min 0,000 mm 0,0 UV-I 0 W/m -1,3 C -0,3 C 3,2 km/h (1 Bft)
08.01.2017 08:20 -0,3 C 93 % 1030,0 hPa 0,0 l/m 0,6 km/h (0 Bft) W-NW 292 0 min 0,000 mm 0,0 UV-I 0 W/m -1,3 C -0,3 C 4,8 km/h (1 Bft)
08.01.2017 08:25 -0,3 C 93 % 1029,9 hPa 0,0 l/m 0,8 km/h (0 Bft) NW 305 0 min 0,000 mm 0,0 UV-I 0 W/m -1,3 C -0,3 C 4,8 km/h (1 Bft)
08.01.2017 08:30 -0,3 C 94 % 1029,9 hPa 0,0 l/m 2,3 km/h (1 Bft) W-NW 290 0 min 0,000 mm 0,0 UV-I 2 W/m -1,1 C -0,3 C 6,4 km/h (2 Bft)
08.01.2017 08:35 -0,3 C 93 % 1030,0 hPa 0,0 l/m 1,1 km/h (1 Bft) W-NW 288 0 min 0,000 mm 0,0 UV-I 5 W/m -1,3 C -0,3 C 4,8 km/h (1 Bft)
08.01.2017 08:40 -0,3 C 94 % 1030,0 hPa 0,0 l/m 0,7 km/h (0 Bft) W-NW 287 0 min 0,000 mm 0,0 UV-I 6 W/m -1,1 C -0,3 C 4,8 km/h (1 Bft)
08.01.2017 08:45 -0,3 C 94 % 1030,1 hPa 0,0 l/m 0,2 km/h (0 Bft) W-NW 286 0 min 0,000 mm 0,0 UV-I 9 W/m -1,1 C -0,3 C 3,2 km/h (1 Bft)
08.01.2017 08:50 -0,3 C 94 % 1030,3 hPa 0,0 l/m 0,0 km/h (0 Bft) W 265 0 min 0,000 mm 0,0 UV-I 12 W/m -1,1 C -0,3 C 1,6 km/h (1 Bft)
08.01.2017 08:55 -0,2 C 94 % 1030,3 hPa 0,0 l/m 0,1 km/h (0 Bft) NW 313 0 min 0,000 mm 0,0 UV-I 14 W/m -1,0 C -0,2 C 3,2 km/h (1 Bft)
08.01.2017 09:00 -0,2 C 94 % 1030,3 hPa 0,0 l/m 0,0 km/h (0 Bft) NW 313 0 min 0,000 mm 0,0 UV-I 23 W/m -1,0 C -0,2 C 0,0 km/h (0 Bft)
08.01.2017 09:05 -0,1 C 94 % 1030,3 hPa 0,0 l/m 0,0 km/h (0 Bft) W 273 0 min 0,000 mm 0,0 UV-I 28 W/m -0,9 C -0,1 C 1,6 km/h (1 Bft)
08.01.2017 09:10 -0,1 C 94 % 1030,3 hPa 0,0 l/m 0,0 km/h (0 Bft) W 267 0 min 0,000 mm 0,0 UV-I 37 W/m -0,9 C -0,1 C 1,6 km/h (1 Bft)
08.01.2017 09:14 -0,1 C 94 % 1030,4 hPa 0,0 l/m 0,1 km/h (0 Bft) W 259 0 min 0,000 mm 0,0 UV-I 30 W/m -0,9 C -0,1 C 3,2 km/h (1 Bft)
08.01.2017 09:15 -0,1 C 94 % 1030,4 hPa 0,0 l/m 0,0 km/h (0 Bft) W 259 0 min 0,000 mm 0,0 UV-I 28 W/m -0,9 C -0,1 C 0,0 km/h (0 Bft)
08.01.2017 09:20 0,0 C 94 % 1030,4 hPa 0,0 l/m 0,0 km/h (0 Bft) W 259 0 min 0,000 mm 0,0 UV-I 32 W/m -0,8 C 0,0 C 0,0 km/h (0 Bft)
08.01.2017 09:25 0,1 C 94 % 1030,3 hPa 0,0 l/m 0,0 km/h (0 Bft) W 260 0 min 0,000 mm 0,0 UV-I 26 W/m -0,7 C 0,1 C 0,0 km/h (0 Bft)
08.01.2017 09:30 0,1 C 94 % 1030,3 hPa 0,0 l/m 0,3 km/h (0 Bft) W-NW 294 0 min 0,000 mm 0,0 UV-I 21 W/m -0,7 C 0,1 C 4,8 km/h (1 Bft)
08.01.2017 09:35 0,1 C 94 % 1030,5 hPa 0,0 l/m 0,0 km/h (0 Bft) W-NW 294 0 min 0,000 mm 0,0 UV-I 23 W/m -0,7 C 0,1 C 0,0 km/h (0 Bft)
08.01.2017 09:40 0,2 C 94 % 1030,4 hPa 0,0 l/m 0,0 km/h (0 Bft) W-NW 294 0 min 0,000 mm 0,0 UV-I 31 W/m -0,6 C 0,2 C 0,0 km/h (0 Bft)
08.01.2017 09:45 0,3 C 94 % 1030,6 hPa 0,0 l/m 0,0 km/h (0 Bft) W-NW 294 0 min 0,000 mm 0,0 UV-I 62 W/m -0,5 C 0,3 C 0,0 km/h (0 Bft)
08.01.2017 09:50 0,3 C 94 % 1030,6 hPa 0,0 l/m 0,0 km/h (0 Bft) W 269 0 min 0,000 mm 0,0 UV-I 55 W/m -0,5 C 0,3 C 1,6 km/h (1 Bft)
08.01.2017 09:55 0,4 C 94 % 1030,6 hPa 0,0 l/m 0,0 km/h (0 Bft) W 279 0 min 0,000 mm 0,0 UV-I 47 W/m -0,5 C 0,4 C 0,0 km/h (0 Bft)
08.01.2017 10:00 0,4 C 94 % 1030,7 hPa 0,0 l/m 0,0 km/h (0 Bft) W 279 0 min 0,025 mm 0,0 UV-I 56 W/m -0,5 C 0,4 C 0,0 km/h (0 Bft)
08.01.2017 10:05 0,5 C 94 % 1030,8 hPa 0,0 l/m 0,0 km/h (0 Bft) W 279 0 min 0,000 mm 0,0 UV-I 37 W/m -0,4 C 0,5 C 0,0 km/h (0 Bft)
08.01.2017 10:10 0,6 C 94 % 1030,9 hPa 0,0 l/m 0,0 km/h (0 Bft) W 279 0 min 0,000 mm 0,0 UV-I 23 W/m -0,3 C 0,6 C 0,0 km/h (0 Bft)
08.01.2017 10:15 0,6 C 94 % 1031,0 hPa 0,0 l/m 0,0 km/h (0 Bft) W 279 0 min 0,000 mm 0,0 UV-I 33 W/m -0,3 C 0,6 C 0,0 km/h (0 Bft)
08.01.2017 10:20 0,6 C 93 % 1031,0 hPa 0,0 l/m 0,0 km/h (0 Bft) SW 227 0 min 0,000 mm 0,0 UV-I 36 W/m -0,4 C 0,6 C 0,0 km/h (0 Bft)
08.01.2017 10:25 0,7 C 93 % 1031,0 hPa 0,0 l/m 0,0 km/h (0 Bft) W-SW 241 0 min 0,000 mm 0,0 UV-I 45 W/m -0,3 C 0,7 C 0,0 km/h (0 Bft)
08.01.2017 10:30 0,7 C 93 % 1031,1 hPa 0,0 l/m 0,0 km/h (0 Bft) W-SW 242 0 min 0,000 mm 0,0 UV-I 45 W/m -0,3 C 0,7 C 0,0 km/h (0 Bft)
08.01.2017 10:35 0,7 C 93 % 1031,1 hPa 0,0 l/m 0,0 km/h (0 Bft) NW 309 0 min 0,000 mm 0,0 UV-I 43 W/m -0,3 C 0,7 C 0,0 km/h (0 Bft)
08.01.2017 10:40 0,7 C 93 % 1031,1 hPa 0,0 l/m 0,4 km/h (0 Bft) W-NW 288 0 min 0,000 mm 0,0 UV-I 44 W/m -0,3 C 0,7 C 3,2 km/h (1 Bft)
08.01.2017 10:45 0,7 C 93 % 1031,0 hPa 0,0 l/m 0,4 km/h (0 Bft) W-SW 249 0 min 0,000 mm 0,0 UV-I 46 W/m -0,3 C 0,7 C 3,2 km/h (1 Bft)
08.01.2017 10:50 0,7 C 93 % 1031,1 hPa 0,0 l/m 0,1 km/h (0 Bft) W-NW 284 0 min 0,000 mm 0,0 UV-I 52 W/m -0,3 C 0,7 C 3,2 km/h (1 Bft)
08.01.2017 10:55 0,8 C 93 % 1031,1 hPa 0,0 l/m 0,0 km/h (0 Bft) W-NW 284 0 min 0,000 mm 0,0 UV-I 52 W/m -0,2 C 0,8 C 1,6 km/h (1 Bft)
08.01.2017 11:00 0,8 C 93 % 1031,2 hPa 0,0 l/m 0,0 km/h (0 Bft) W-NW 284 0 min 0,026 mm 0,0 UV-I 52 W/m -0,2 C 0,8 C 0,0 km/h (0 Bft)
08.01.2017 11:05 0,8 C 93 % 1031,3 hPa 0,0 l/m 0,0 km/h (0 Bft) W-NW 284 0 min 0,000 mm 0,0 UV-I 53 W/m -0,2 C 0,8 C 0,0 km/h (0 Bft)
08.01.2017 11:10 0,8 C 93 % 1031,4 hPa 0,0 l/m 0,0 km/h (0 Bft) W-NW 284 0 min 0,000 mm 0,0 UV-I 50 W/m -0,2 C 0,8 C 1,6 km/h (1 Bft)
08.01.2017 11:15 0,9 C 94 % 1031,3 hPa 0,0 l/m 0,0 km/h (0 Bft) W-NW 284 0 min 0,000 mm 0,0 UV-I 47 W/m 0,0 C 0,9 C 0,0 km/h (0 Bft)
08.01.2017 11:20 1,0 C 94 % 1031,2 hPa 0,0 l/m 0,1 km/h (0 Bft) W-NW 285 0 min 0,000 mm 0,0 UV-I 46 W/m 0,1 C 1,0 C 1,6 km/h (1 Bft)
08.01.2017 11:25 1,0 C 94 % 1031,3 hPa 0,0 l/m 0,1 km/h (0 Bft) W-NW 295 0 min 0,000 mm 0,0 UV-I 54 W/m 0,1 C 1,0 C 3,2 km/h (1 Bft)
08.01.2017 11:30 1,1 C 93 % 1031,2 hPa 0,0 l/m 1,9 km/h (1 Bft) W 277 0 min 0,000 mm 0,1 UV-I 71 W/m 0,1 C 1,1 C 6,4 km/h (2 Bft)
08.01.2017 11:35 1,1 C 93 % 1031,2 hPa 0,0 l/m 0,2 km/h (0 Bft) W 261 0 min 0,000 mm 0,4 UV-I 76 W/m 0,1 C 1,1 C 3,2 km/h (1 Bft)
08.01.2017 11:40 1,1 C 93 % 1031,2 hPa 0,0 l/m 1,5 km/h (1 Bft) W 279 0 min 0,000 mm 0,0 UV-I 68 W/m 0,1 C 1,1 C 4,8 km/h (1 Bft)
08.01.2017 11:45 1,2 C 93 % 1031,3 hPa 0,0 l/m 0,6 km/h (0 Bft) W-NW 288 0 min 0,000 mm 0,3 UV-I 73 W/m 0,2 C 1,2 C 4,8 km/h (1 Bft)
08.01.2017 11:50 1,2 C 93 % 1031,3 hPa 0,0 l/m 1,8 km/h (1 Bft) W-NW 293 0 min 0,000 mm 0,5 UV-I 81 W/m 0,2 C 1,2 C 6,4 km/h (2 Bft)
08.01.2017 11:55 1,2 C 93 % 1031,4 hPa 0,0 l/m 0,6 km/h (0 Bft) W-NW 300 0 min 0,000 mm 0,5 UV-I 84 W/m 0,2 C 1,2 C 4,8 km/h (1 Bft)
08.01.2017 12:00 1,2 C 93 % 1031,3 hPa 0,0 l/m 0,1 km/h (0 Bft) W 277 0 min 0,025 mm 0,3 UV-I 77 W/m 0,2 C 1,2 C 1,6 km/h (1 Bft)
08.01.2017 12:05 1,3 C 93 % 1031,4 hPa 0,0 l/m 0,0 km/h (0 Bft) W 277 0 min 0,000 mm 0,5 UV-I 80 W/m 0,3 C 1,3 C 0,0 km/h (0 Bft)
08.01.2017 12:10 1,3 C 93 % 1031,4 hPa 0,0 l/m 0,0 km/h (0 Bft) W 277 0 min 0,000 mm 0,1 UV-I 70 W/m 0,3 C 1,3 C 0,0 km/h (0 Bft)
08.01.2017 12:15 1,4 C 93 % 1031,4 hPa 0,0 l/m 0,0 km/h (0 Bft) W 277 0 min 0,000 mm 0,0 UV-I 69 W/m 0,4 C 1,4 C 0,0 km/h (0 Bft)
08.01.2017 12:20 1,4 C 93 % 1031,4 hPa 0,0 l/m 0,2 km/h (0 Bft) W 267 0 min 0,000 mm 0,5 UV-I 82 W/m 0,4 C 1,4 C 3,2 km/h (1 Bft)
08.01.2017 12:25 1,4 C 93 % 1031,4 hPa 0,0 l/m 0,0 km/h (0 Bft) W 267 0 min 0,000 mm 0,4 UV-I 78 W/m 0,4 C 1,4 C 0,0 km/h (0 Bft)
08.01.2017 12:30 1,4 C 93 % 1031,4 hPa 0,0 l/m 0,0 km/h (0 Bft) W 267 0 min 0,000 mm 0,0 UV-I 70 W/m 0,4 C 1,4 C 0,0 km/h (0 Bft)
08.01.2017 12:35 1,4 C 93 % 1031,4 hPa 0,0 l/m 0,1 km/h (0 Bft) W-NW 300 0 min 0,000 mm 0,2 UV-I 70 W/m 0,4 C 1,4 C 3,2 km/h (1 Bft)
08.01.2017 12:40 1,4 C 93 % 1031,4 hPa 0,0 l/m 1,6 km/h (1 Bft) W 278 0 min 0,000 mm 0,5 UV-I 73 W/m 0,4 C 1,4 C 6,4 km/h (2 Bft)
08.01.2017 12:45 1,5 C 93 % 1031,4 hPa 0,0 l/m 0,0 km/h (0 Bft) W-NW 300 0 min 0,000 mm 0,1 UV-I 69 W/m 0,5 C 1,5 C 0,0 km/h (0 Bft)
08.01.2017 12:50 1,6 C 93 % 1031,4 hPa 0,0 l/m 0,0 km/h (0 Bft) W-NW 302 0 min 0,000 mm 0,0 UV-I 64 W/m 0,6 C 1,6 C 0,0 km/h (0 Bft)
08.01.2017 12:55 1,6 C 93 % 1031,3 hPa 0,0 l/m 0,0 km/h (0 Bft) W-NW 302 0 min 0,000 mm 0,0 UV-I 58 W/m 0,6 C 1,6 C 0,0 km/h (0 Bft)
08.01.2017 13:00 1,6 C 93 % 1031,3 hPa 0,0 l/m 0,0 km/h (0 Bft) W-SW 247 0 min 0,026 mm 0,3 UV-I 64 W/m 0,6 C 1,6 C 0,0 km/h (0 Bft)
08.01.2017 13:05 1,6 C 93 % 1031,3 hPa 0,0 l/m 0,0 km/h (0 Bft) W-SW 247 0 min 0,000 mm 0,2 UV-I 73 W/m 0,6 C 1,6 C 0,0 km/h (0 Bft)
08.01.2017 13:10 1,6 C 93 % 1031,2 hPa 0,0 l/m 0,0 km/h (0 Bft) W-SW 247 0 min 0,000 mm 0,0 UV-I 62 W/m 0,6 C 1,6 C 0,0 km/h (0 Bft)
08.01.2017 13:15 1,6 C 93 % 1031,2 hPa 0,0 l/m 0,3 km/h (0 Bft) W-NW 290 0 min 0,000 mm 0,0 UV-I 63 W/m 0,6 C 1,6 C 4,8 km/h (1 Bft)
08.01.2017 13:20 1,6 C 93 % 1031,1 hPa 0,0 l/m 0,1 km/h (0 Bft) W-NW 288 0 min 0,000 mm 0,0 UV-I 62 W/m 0,6 C 1,6 C 3,2 km/h (1 Bft)
08.01.2017 13:25 1,6 C 93 % 1031,0 hPa 0,0 l/m 0,0 km/h (0 Bft) W 266 0 min 0,000 mm 0,0 UV-I 71 W/m 0,6 C 1,6 C 0,0 km/h (0 Bft)
08.01.2017 13:30 1,6 C 93 % 1031,0 hPa 0,0 l/m 0,0 km/h (0 Bft) W 267 0 min 0,000 mm 0,5 UV-I 78 W/m 0,6 C 1,6 C 1,6 km/h (1 Bft)
08.01.2017 13:35 1,6 C 93 % 1030,9 hPa 0,0 l/m 0,7 km/h (0 Bft) W 281 0 min 0,000 mm 0,1 UV-I 77 W/m 0,6 C 1,6 C 6,4 km/h (2 Bft)
08.01.2017 13:40 1,6 C 93 % 1031,0 hPa 0,0 l/m 1,2 km/h (1 Bft) W 276 0 min 0,000 mm 0,4 UV-I 84 W/m 0,6 C 1,6 C 6,4 km/h (2 Bft)
08.01.2017 13:45 1,6 C 93 % 1031,0 hPa 0,0 l/m 0,6 km/h (0 Bft) W 274 0 min 0,000 mm 0,0 UV-I 79 W/m 0,6 C 1,6 C 3,2 km/h (1 Bft)
08.01.2017 13:50 1,6 C 93 % 1030,9 hPa 0,0 l/m 0,9 km/h (0 Bft) W 267 0 min 0,000 mm 0,3 UV-I 84 W/m 0,6 C 1,6 C 4,8 km/h (1 Bft)
08.01.2017 13:55 1,6 C 93 % 1030,9 hPa 0,0 l/m 0,4 km/h (0 Bft) W-SW 255 0 min 0,000 mm 0,4 UV-I 88 W/m 0,6 C 1,6 C 3,2 km/h (1 Bft)
08.01.2017 14:00 1,7 C 93 % 1031,0 hPa 0,0 l/m 0,3 km/h (0 Bft) W-SW 243 0 min 0,025 mm 0,0 UV-I 77 W/m 0,7 C 1,7 C 3,2 km/h (1 Bft)
08.01.2017 14:05 1,7 C 93 % 1030,9 hPa 0,0 l/m 0,0 km/h (0 Bft) W-SW 251 0 min 0,000 mm 0,0 UV-I 74 W/m 0,7 C 1,7 C 1,6 km/h (1 Bft)
08.01.2017 14:10 1,7 C 93 % 1031,0 hPa 0,0 l/m 0,8 km/h (0 Bft) W-SW 255 0 min 0,000 mm 0,0 UV-I 73 W/m 0,7 C 1,7 C 4,8 km/h (1 Bft)
08.01.2017 14:15 1,8 C 93 % 1031,0 hPa 0,0 l/m 0,0 km/h (0 Bft) W-SW 255 0 min 0,000 mm 0,0 UV-I 68 W/m 0,8 C 1,8 C 0,0 km/h (0 Bft)
08.01.2017 14:20 1,8 C 93 % 1031,0 hPa 0,0 l/m 0,0 km/h (0 Bft) W-SW 255 0 min 0,000 mm 0,0 UV-I 65 W/m 0,8 C 1,8 C 0,0 km/h (0 Bft)
08.01.2017 14:25 1,8 C 93 % 1031,0 hPa 0,0 l/m 0,0 km/h (0 Bft) W-SW 255 0 min 0,000 mm 0,0 UV-I 58 W/m 0,8 C 1,8 C 0,0 km/h (0 Bft)
08.01.2017 14:30 1,9 C 92 % 1031,1 hPa 0,0 l/m 0,0 km/h (0 Bft) W-SW 255 0 min 0,000 mm 0,0 UV-I 55 W/m 0,7 C 1,9 C 0,0 km/h (0 Bft)
08.01.2017 14:35 1,9 C 92 % 1031,1 hPa 0,0 l/m 0,9 km/h (0 Bft) W-SW 254 0 min 0,000 mm 0,0 UV-I 49 W/m 0,7 C 1,9 C 4,8 km/h (1 Bft)
08.01.2017 14:40 1,9 C 92 % 1031,1 hPa 0,0 l/m 0,0 km/h (0 Bft) W 259 0 min 0,000 mm 0,0 UV-I 46 W/m 0,7 C 1,9 C 0,0 km/h (0 Bft)
08.01.2017 14:45 1,9 C 92 % 1031,2 hPa 0,0 l/m 0,0 km/h (0 Bft) W-SW 241 0 min 0,000 mm 0,0 UV-I 34 W/m 0,7 C 1,9 C 0,0 km/h (0 Bft)
08.01.2017 14:50 1,8 C 92 % 1031,2 hPa 0,0 l/m 0,0 km/h (0 Bft) W-NW 283 0 min 0,000 mm 0,0 UV-I 31 W/m 0,6 C 1,8 C 1,6 km/h (1 Bft)
08.01.2017 14:55 1,8 C 92 % 1031,1 hPa 0,0 l/m 0,1 km/h (0 Bft) W 278 0 min 0,000 mm 0,0 UV-I 26 W/m 0,6 C 1,8 C 1,6 km/h (1 Bft)
08.01.2017 15:00 1,8 C 93 % 1031,2 hPa 0,0 l/m 0,0 km/h (0 Bft) W 278 0 min 0,025 mm 0,0 UV-I 22 W/m 0,8 C 1,8 C 0,0 km/h (0 Bft)
08.01.2017 15:05 1,8 C 93 % 1031,2 hPa 0,0 l/m 0,0 km/h (0 Bft) W 278 0 min 0,000 mm 0,0 UV-I 27 W/m 0,8 C 1,8 C 0,0 km/h (0 Bft)
08.01.2017 15:10 1,8 C 92 % 1031,3 hPa 0,0 l/m 0,0 km/h (0 Bft) W 271 0 min 0,000 mm 0,0 UV-I 26 W/m 0,6 C 1,8 C 0,0 km/h (0 Bft)
08.01.2017 15:15 1,8 C 92 % 1031,3 hPa 0,0 l/m 0,0 km/h (0 Bft) W 271 0 min 0,000 mm 0,0 UV-I 21 W/m 0,6 C 1,8 C 0,0 km/h (0 Bft)
08.01.2017 15:20 1,8 C 92 % 1031,2 hPa 0,0 l/m 0,0 km/h (0 Bft) W 271 0 min 0,000 mm 0,0 UV-I 17 W/m 0,6 C 1,8 C 0,0 km/h (0 Bft)
08.01.2017 15:25 1,8 C 92 % 1031,2 hPa 0,0 l/m 0,0 km/h (0 Bft) W 271 0 min 0,000 mm 0,0 UV-I 13 W/m 0,6 C 1,8 C 0,0 km/h (0 Bft)
08.01.2017 15:30 1,8 C 92 % 1031,3 hPa 0,0 l/m 0,0 km/h (0 Bft) W 271 0 min 0,000 mm 0,0 UV-I 14 W/m 0,6 C 1,8 C 0,0 km/h (0 Bft)
08.01.2017 15:35 1,8 C 93 % 1031,3 hPa 0,0 l/m 0,0 km/h (0 Bft) W 271 0 min 0,000 mm 0,0 UV-I 14 W/m 0,8 C 1,8 C 0,0 km/h (0 Bft)
08.01.2017 15:40 1,7 C 93 % 1031,4 hPa 0,0 l/m 0,0 km/h (0 Bft) W 277 0 min 0,000 mm 0,0 UV-I 14 W/m 0,7 C 1,7 C 1,6 km/h (1 Bft)
08.01.2017 15:45 1,7 C 92 % 1031,3 hPa 0,0 l/m 0,4 km/h (0 Bft) W 275 0 min 0,000 mm 0,0 UV-I 14 W/m 0,5 C 1,7 C 4,8 km/h (1 Bft)
08.01.2017 15:50 1,7 C 92 % 1031,2 hPa 0,0 l/m 0,0 km/h (0 Bft) W 275 0 min 0,000 mm 0,0 UV-I 13 W/m 0,5 C 1,7 C 1,6 km/h (1 Bft)
08.01.2017 15:55 1,7 C 92 % 1031,3 hPa 0,0 l/m 0,0 km/h (0 Bft) W 277 0 min 0,000 mm 0,0 UV-I 12 W/m 0,5 C 1,7 C 0,0 km/h (0 Bft)
08.01.2017 16:00 1,7 C 93 % 1031,3 hPa 0,0 l/m 0,2 km/h (0 Bft) W 277 0 min 0,000 mm 0,0 UV-I 11 W/m 0,7 C 1,7 C 3,2 km/h (1 Bft)
08.01.2017 16:05 1,7 C 93 % 1031,3 hPa 0,0 l/m 0,0 km/h (0 Bft) W 277 0 min 0,000 mm 0,0 UV-I 9 W/m 0,7 C 1,7 C 1,6 km/h (1 Bft)
08.01.2017 16:10 1,8 C 93 % 1031,3 hPa 0,0 l/m 0,0 km/h (0 Bft) W 277 0 min 0,000 mm 0,0 UV-I 9 W/m 0,8 C 1,8 C 0,0 km/h (0 Bft)
08.01.2017 16:15 1,7 C 92 % 1031,2 hPa 0,0 l/m 0,3 km/h (0 Bft) W-NW 302 0 min 0,000 mm 0,0 UV-I 7 W/m 0,5 C 1,7 C 4,8 km/h (1 Bft)
08.01.2017 16:20 1,8 C 93 % 1031,2 hPa 0,0 l/m 0,0 km/h (0 Bft) W-NW 302 0 min 0,000 mm 0,0 UV-I 5 W/m 0,8 C 1,8 C 0,0 km/h (0 Bft)
08.01.2017 16:25 1,8 C 93 % 1031,2 hPa 0,0 l/m 0,0 km/h (0 Bft) W-NW 302 0 min 0,000 mm 0,0 UV-I 0 W/m 0,8 C 1,8 C 0,0 km/h (0 Bft)
08.01.2017 16:30 1,8 C 92 % 1031,3 hPa 0,0 l/m 0,0 km/h (0 Bft) W-NW 302 0 min 0,000 mm 0,0 UV-I 0 W/m 0,6 C 1,8 C 0,0 km/h (0 Bft)
08.01.2017 16:35 1,8 C 92 % 1031,4 hPa 0,0 l/m 0,0 km/h (0 Bft) W-NW 302 0 min 0,000 mm 0,0 UV-I 0 W/m 0,6 C 1,8 C 0,0 km/h (0 Bft)
08.01.2017 16:40 1,7 C 92 % 1031,4 hPa 0,0 l/m 0,0 km/h (0 Bft) W-NW 302 0 min 0,000 mm 0,0 UV-I 0 W/m 0,5 C 1,7 C 0,0 km/h (0 Bft)
08.01.2017 16:45 1,7 C 92 % 1031,4 hPa 0,0 l/m 0,0 km/h (0 Bft) W-NW 302 0 min 0,000 mm 0,0 UV-I 0 W/m 0,5 C 1,7 C 0,0 km/h (0 Bft)
08.01.2017 16:50 1,7 C 92 % 1031,5 hPa 0,0 l/m 0,0 km/h (0 Bft) W-NW 302 0 min 0,000 mm 0,0 UV-I 0 W/m 0,5 C 1,7 C 0,0 km/h (0 Bft)
08.01.2017 16:55 1,6 C 92 % 1031,5 hPa 0,0 l/m 0,0 km/h (0 Bft) W-NW 302 0 min 0,000 mm 0,0 UV-I 0 W/m 0,4 C 1,6 C 0,0 km/h (0 Bft)
08.01.2017 17:00 1,6 C 92 % 1031,6 hPa 0,0 l/m 0,0 km/h (0 Bft) W-NW 302 0 min 0,000 mm 0,0 UV-I 0 W/m 0,4 C 1,6 C 0,0 km/h (0 Bft)
08.01.2017 17:05 1,5 C 92 % 1031,7 hPa 0,0 l/m 0,0 km/h (0 Bft) W-NW 302 0 min 0,000 mm 0,0 UV-I 0 W/m 0,3 C 1,5 C 0,0 km/h (0 Bft)
08.01.2017 17:10 1,5 C 92 % 1031,7 hPa 0,0 l/m 0,0 km/h (0 Bft) W-NW 302 0 min 0,000 mm 0,0 UV-I 0 W/m 0,3 C 1,5 C 0,0 km/h (0 Bft)
08.01.2017 17:15 1,5 C 93 % 1031,7 hPa 0,0 l/m 0,0 km/h (0 Bft) W-NW 302 0 min 0,000 mm 0,0 UV-I 0 W/m 0,5 C 1,5 C 0,0 km/h (0 Bft)
08.01.2017 17:20 1,4 C 93 % 1031,7 hPa 0,0 l/m 0,0 km/h (0 Bft) W-NW 302 0 min 0,000 mm 0,0 UV-I 0 W/m 0,4 C 1,4 C 0,0 km/h (0 Bft)
08.01.2017 17:25 1,4 C 93 % 1031,7 hPa 0,0 l/m 0,0 km/h (0 Bft) W-NW 302 0 min 0,000 mm 0,0 UV-I 0 W/m 0,4 C 1,4 C 0,0 km/h (0 Bft)
08.01.2017 17:30 1,4 C 93 % 1031,6 hPa 0,0 l/m 0,0 km/h (0 Bft) W-NW 302 0 min 0,000 mm 0,0 UV-I 0 W/m 0,4 C 1,4 C 0,0 km/h (0 Bft)
08.01.2017 17:35 1,4 C 93 % 1031,7 hPa 0,0 l/m 0,0 km/h (0 Bft) W-NW 302 0 min 0,000 mm 0,0 UV-I 0 W/m 0,4 C 1,4 C 0,0 km/h (0 Bft)
08.01.2017 17:40 1,4 C 93 % 1031,7 hPa 0,0 l/m 0,0 km/h (0 Bft) W-NW 302 0 min 0,000 mm 0,0 UV-I 0 W/m 0,4 C 1,4 C 0,0 km/h (0 Bft)
08.01.2017 17:45 1,3 C 93 % 1031,7 hPa 0,0 l/m 0,0 km/h (0 Bft) W-NW 302 0 min 0,000 mm 0,0 UV-I 0 W/m 0,3 C 1,3 C 0,0 km/h (0 Bft)
08.01.2017 17:50 1,3 C 93 % 1031,8 hPa 0,0 l/m 0,0 km/h (0 Bft) W-NW 302 0 min 0,000 mm 0,0 UV-I 0 W/m 0,3 C 1,3 C 0,0 km/h (0 Bft)
08.01.2017 17:55 1,3 C 93 % 1031,8 hPa 0,0 l/m 0,0 km/h (0 Bft) W-NW 302 0 min 0,000 mm 0,0 UV-I 0 W/m 0,3 C 1,3 C 0,0 km/h (0 Bft)
08.01.2017 18:00 1,2 C 93 % 1031,9 hPa 0,0 l/m 0,0 km/h (0 Bft) W-NW 302 0 min 0,000 mm 0,0 UV-I 0 W/m 0,2 C 1,2 C 0,0 km/h (0 Bft)
08.01.2017 18:05 1,2 C 93 % 1031,9 hPa 0,0 l/m 0,0 km/h (0 Bft) W-NW 302 0 min 0,000 mm 0,0 UV-I 0 W/m 0,2 C 1,2 C 0,0 km/h (0 Bft)
08.01.2017 18:10 1,2 C 93 % 1031,9 hPa 0,0 l/m 0,0 km/h (0 Bft) W-NW 302 0 min 0,000 mm 0,0 UV-I 0 W/m 0,2 C 1,2 C 0,0 km/h (0 Bft)
08.01.2017 18:15 1,2 C 93 % 1031,8 hPa 0,0 l/m 0,0 km/h (0 Bft) W-NW 302 0 min 0,000 mm 0,0 UV-I 0 W/m 0,2 C 1,2 C 0,0 km/h (0 Bft)
08.01.2017 18:20 1,1 C 93 % 1031,8 hPa 0,0 l/m 0,0 km/h (0 Bft) W-NW 302 0 min 0,000 mm 0,0 UV-I 0 W/m 0,1 C 1,1 C 0,0 km/h (0 Bft)
08.01.2017 18:25 1,1 C 93 % 1031,8 hPa 0,0 l/m 0,0 km/h (0 Bft) W-NW 302 0 min 0,000 mm 0,0 UV-I 0 W/m 0,1 C 1,1 C 0,0 km/h (0 Bft)
08.01.2017 18:30 1,1 C 93 % 1031,8 hPa 0,0 l/m 0,0 km/h (0 Bft) W-NW 302 0 min 0,000 mm 0,0 UV-I 0 W/m 0,1 C 1,1 C 0,0 km/h (0 Bft)
08.01.2017 18:35 1,1 C 93 % 1031,8 hPa 0,0 l/m 0,0 km/h (0 Bft) W-NW 302 0 min 0,000 mm 0,0 UV-I 0 W/m 0,1 C 1,1 C 0,0 km/h (0 Bft)
08.01.2017 18:40 1,1 C 93 % 1031,8 hPa 0,0 l/m 0,0 km/h (0 Bft) W-NW 302 0 min 0,000 mm 0,0 UV-I 0 W/m 0,1 C 1,1 C 0,0 km/h (0 Bft)
08.01.2017 18:45 1,1 C 93 % 1031,8 hPa 0,0 l/m 0,0 km/h (0 Bft) W-NW 302 0 min 0,000 mm 0,0 UV-I 0 W/m 0,1 C 1,1 C 0,0 km/h (0 Bft)
08.01.2017 18:50 1,1 C 93 % 1031,8 hPa 0,0 l/m 0,0 km/h (0 Bft) W-NW 302 0 min 0,000 mm 0,0 UV-I 0 W/m 0,1 C 1,1 C 0,0 km/h (0 Bft)
08.01.2017 18:55 1,1 C 93 % 1031,8 hPa 0,0 l/m 0,0 km/h (0 Bft) W-NW 302 0 min 0,000 mm 0,0 UV-I 0 W/m 0,1 C 1,1 C 0,0 km/h (0 Bft)
08.01.2017 19:00 1,1 C 93 % 1031,9 hPa 0,0 l/m 0,0 km/h (0 Bft) W-NW 302 0 min 0,000 mm 0,0 UV-I 0 W/m 0,1 C 1,1 C 0,0 km/h (0 Bft)
08.01.2017 19:05 1,1 C 93 % 1031,9 hPa 0,0 l/m 0,0 km/h (0 Bft) W-NW 302 0 min 0,000 mm 0,0 UV-I 0 W/m 0,1 C 1,1 C 0,0 km/h (0 Bft)
08.01.2017 19:10 1,1 C 93 % 1032,0 hPa 0,0 l/m 0,0 km/h (0 Bft) W-NW 302 0 min 0,000 mm 0,0 UV-I 0 W/m 0,1 C 1,1 C 0,0 km/h (0 Bft)
08.01.2017 19:15 1,1 C 93 % 1032,0 hPa 0,0 l/m 0,0 km/h (0 Bft) W-NW 302 0 min 0,000 mm 0,0 UV-I 0 W/m 0,1 C 1,1 C 0,0 km/h (0 Bft)
08.01.2017 19:20 1,1 C 93 % 1032,0 hPa 0,0 l/m 0,0 km/h (0 Bft) W-NW 302 0 min 0,000 mm 0,0 UV-I 0 W/m 0,1 C 1,1 C 0,0 km/h (0 Bft)
08.01.2017 19:25 1,1 C 93 % 1032,0 hPa 0,0 l/m 0,0 km/h (0 Bft) W-NW 302 0 min 0,000 mm 0,0 UV-I 0 W/m 0,1 C 1,1 C 0,0 km/h (0 Bft)
08.01.2017 19:30 1,1 C 93 % 1032,0 hPa 0,0 l/m 0,0 km/h (0 Bft) W-NW 302 0 min 0,000 mm 0,0 UV-I 0 W/m 0,1 C 1,1 C 0,0 km/h (0 Bft)
08.01.2017 19:35 1,1 C 93 % 1032,0 hPa 0,0 l/m 0,0 km/h (0 Bft) W-NW 302 0 min 0,000 mm 0,0 UV-I 0 W/m 0,1 C 1,1 C 0,0 km/h (0 Bft)
08.01.2017 19:40 1,1 C 93 % 1032,0 hPa 0,0 l/m 0,0 km/h (0 Bft) W-NW 302 0 min 0,000 mm 0,0 UV-I 0 W/m 0,1 C 1,1 C 0,0 km/h (0 Bft)
08.01.2017 19:45 1,0 C 93 % 1032,0 hPa 0,0 l/m 0,0 km/h (0 Bft) W-NW 302 0 min 0,000 mm 0,0 UV-I 0 W/m -0,0 C 1,0 C 0,0 km/h (0 Bft)
08.01.2017 19:50 1,1 C 93 % 1032,0 hPa 0,0 l/m 0,0 km/h (0 Bft) W-NW 302 0 min 0,000 mm 0,0 UV-I 0 W/m 0,1 C 1,1 C 0,0 km/h (0 Bft)
08.01.2017 19:55 1,1 C 93 % 1032,0 hPa 0,0 l/m 0,0 km/h (0 Bft) W-NW 302 0 min 0,000 mm 0,0 UV-I 0 W/m 0,1 C 1,1 C 0,0 km/h (0 Bft)
08.01.2017 20:00 1,0 C 93 % 1032,1 hPa 0,0 l/m 0,0 km/h (0 Bft) W-NW 302 0 min 0,000 mm 0,0 UV-I 0 W/m -0,0 C 1,0 C 0,0 km/h (0 Bft)
08.01.2017 20:05 1,0 C 93 % 1032,0 hPa 0,0 l/m 0,0 km/h (0 Bft) W-NW 302 0 min 0,000 mm 0,0 UV-I 0 W/m -0,0 C 1,0 C 0,0 km/h (0 Bft)
08.01.2017 20:10 1,0 C 93 % 1031,9 hPa 0,0 l/m 0,0 km/h (0 Bft) W-NW 302 0 min 0,000 mm 0,0 UV-I 0 W/m -0,0 C 1,0 C 0,0 km/h (0 Bft)
08.01.2017 20:15 0,9 C 93 % 1031,9 hPa 0,0 l/m 0,0 km/h (0 Bft) W-NW 302 0 min 0,000 mm 0,0 UV-I 0 W/m -0,1 C 0,9 C 0,0 km/h (0 Bft)
08.01.2017 20:20 0,9 C 93 % 1031,8 hPa 0,0 l/m 0,0 km/h (0 Bft) W-NW 302 0 min 0,000 mm 0,0 UV-I 0 W/m -0,1 C 0,9 C 0,0 km/h (0 Bft)
08.01.2017 20:25 0,9 C 94 % 1031,8 hPa 0,0 l/m 0,0 km/h (0 Bft) W-NW 302 0 min 0,000 mm 0,0 UV-I 0 W/m 0,0 C 0,9 C 0,0 km/h (0 Bft)
08.01.2017 20:30 0,8 C 94 % 1031,8 hPa 0,0 l/m 0,0 km/h (0 Bft) W-NW 302 0 min 0,000 mm 0,0 UV-I 0 W/m -0,1 C 0,8 C 0,0 km/h (0 Bft)
08.01.2017 20:35 0,8 C 94 % 1031,9 hPa 0,0 l/m 0,0 km/h (0 Bft) W-NW 302 0 min 0,000 mm 0,0 UV-I 0 W/m -0,1 C 0,8 C 0,0 km/h (0 Bft)
08.01.2017 20:40 0,8 C 94 % 1031,8 hPa 0,0 l/m 0,0 km/h (0 Bft) W-NW 302 0 min 0,000 mm 0,0 UV-I 0 W/m -0,1 C 0,8 C 0,0 km/h (0 Bft)
08.01.2017 20:45 0,8 C 94 % 1031,8 hPa 0,0 l/m 0,0 km/h (0 Bft) W-NW 302 0 min 0,000 mm 0,0 UV-I 0 W/m -0,1 C 0,8 C 0,0 km/h (0 Bft)
08.01.2017 20:50 0,8 C 94 % 1031,8 hPa 0,0 l/m 0,0 km/h (0 Bft) W-NW 302 0 min 0,000 mm 0,0 UV-I 0 W/m -0,1 C 0,8 C 0,0 km/h (0 Bft)
08.01.2017 20:55 0,8 C 94 % 1031,8 hPa 0,0 l/m 0,0 km/h (0 Bft) W-NW 302 0 min 0,000 mm 0,0 UV-I 0 W/m -0,1 C 0,8 C 0,0 km/h (0 Bft)
08.01.2017 21:00 0,8 C 94 % 1031,7 hPa 0,0 l/m 0,0 km/h (0 Bft) W-NW 302 0 min 0,000 mm 0,0 UV-I 0 W/m -0,1 C 0,8 C 0,0 km/h (0 Bft)
08.01.2017 21:05 0,8 C 94 % 1031,7 hPa 0,0 l/m 0,0 km/h (0 Bft) W-NW 302 0 min 0,000 mm 0,0 UV-I 0 W/m -0,1 C 0,8 C 0,0 km/h (0 Bft)
08.01.2017 21:10 0,8 C 94 % 1031,7 hPa 0,0 l/m 0,0 km/h (0 Bft) W-NW 302 0 min 0,000 mm 0,0 UV-I 0 W/m -0,1 C 0,8 C 0,0 km/h (0 Bft)
08.01.2017 21:15 0,8 C 94 % 1031,7 hPa 0,0 l/m 0,0 km/h (0 Bft) W-NW 302 0 min 0,000 mm 0,0 UV-I 0 W/m -0,1 C 0,8 C 0,0 km/h (0 Bft)
08.01.2017 21:20 0,8 C 94 % 1031,7 hPa 0,0 l/m 0,0 km/h (0 Bft) W-NW 302 0 min 0,000 mm 0,0 UV-I 0 W/m -0,1 C 0,8 C 0,0 km/h (0 Bft)
08.01.2017 21:25 0,8 C 94 % 1031,8 hPa 0,0 l/m 0,0 km/h (0 Bft) W-NW 302 0 min 0,000 mm 0,0 UV-I 0 W/m -0,1 C 0,8 C 0,0 km/h (0 Bft)
08.01.2017 21:30 0,8 C 94 % 1031,9 hPa 0,0 l/m 0,0 km/h (0 Bft) W-NW 302 0 min 0,000 mm 0,0 UV-I 0 W/m -0,1 C 0,8 C 0,0 km/h (0 Bft)
08.01.2017 21:35 0,8 C 94 % 1031,9 hPa 0,0 l/m 0,0 km/h (0 Bft) W-NW 302 0 min 0,000 mm 0,0 UV-I 0 W/m -0,1 C 0,8 C 0,0 km/h (0 Bft)
08.01.2017 21:40 0,8 C 94 % 1032,0 hPa 0,0 l/m 0,0 km/h (0 Bft) W-NW 302 0 min 0,000 mm 0,0 UV-I 0 W/m -0,1 C 0,8 C 0,0 km/h (0 Bft)
08.01.2017 21:45 0,8 C 94 % 1032,0 hPa 0,0 l/m 0,0 km/h (0 Bft) W-NW 302 0 min 0,000 mm 0,0 UV-I 0 W/m -0,1 C 0,8 C 0,0 km/h (0 Bft)
08.01.2017 21:50 0,8 C 94 % 1032,0 hPa 0,0 l/m 0,0 km/h (0 Bft) W-NW 302 0 min 0,000 mm 0,0 UV-I 0 W/m -0,1 C 0,8 C 0,0 km/h (0 Bft)
08.01.2017 21:55 0,8 C 94 % 1032,1 hPa 0,0 l/m 0,0 km/h (0 Bft) W-NW 302 0 min 0,000 mm 0,0 UV-I 0 W/m -0,1 C 0,8 C 0,0 km/h (0 Bft)
08.01.2017 22:00 0,8 C 94 % 1032,0 hPa 0,0 l/m 0,0 km/h (0 Bft) W-NW 302 0 min 0,000 mm 0,0 UV-I 0 W/m -0,1 C 0,8 C 0,0 km/h (0 Bft)
08.01.2017 22:05 0,7 C 94 % 1032,1 hPa 0,0 l/m 0,0 km/h (0 Bft) W-NW 302 0 min 0,000 mm 0,0 UV-I 0 W/m -0,2 C 0,7 C 0,0 km/h (0 Bft)
08.01.2017 22:10 0,8 C 94 % 1032,1 hPa 0,0 l/m 0,0 km/h (0 Bft) W-NW 302 0 min 0,000 mm 0,0 UV-I 0 W/m -0,1 C 0,8 C 0,0 km/h (0 Bft)
08.01.2017 22:15 0,8 C 94 % 1032,2 hPa 0,0 l/m 0,0 km/h (0 Bft) W-NW 302 0 min 0,000 mm 0,0 UV-I 0 W/m -0,1 C 0,8 C 0,0 km/h (0 Bft)
08.01.2017 22:20 0,7 C 94 % 1032,3 hPa 0,0 l/m 0,0 km/h (0 Bft) W-NW 302 0 min 0,000 mm 0,0 UV-I 0 W/m -0,2 C 0,7 C 0,0 km/h (0 Bft)
08.01.2017 22:25 0,8 C 94 % 1032,2 hPa 0,0 l/m 0,0 km/h (0 Bft) W-NW 302 0 min 0,000 mm 0,0 UV-I 0 W/m -0,1 C 0,8 C 0,0 km/h (0 Bft)
08.01.2017 22:30 0,7 C 94 % 1032,3 hPa 0,0 l/m 0,0 km/h (0 Bft) W-NW 302 0 min 0,000 mm 0,0 UV-I 0 W/m -0,2 C 0,7 C 0,0 km/h (0 Bft)
08.01.2017 22:35 0,7 C 94 % 1032,3 hPa 0,0 l/m 0,0 km/h (0 Bft) W-NW 302 0 min 0,000 mm 0,0 UV-I 0 W/m -0,2 C 0,7 C 0,0 km/h (0 Bft)
08.01.2017 22:40 0,7 C 94 % 1032,3 hPa 0,0 l/m 0,0 km/h (0 Bft) W-NW 302 0 min 0,000 mm 0,0 UV-I 0 W/m -0,2 C 0,7 C 0,0 km/h (0 Bft)
08.01.2017 22:45 0,7 C 94 % 1032,3 hPa 0,0 l/m 0,0 km/h (0 Bft) W-NW 302 0 min 0,000 mm 0,0 UV-I 0 W/m -0,2 C 0,7 C 0,0 km/h (0 Bft)
08.01.2017 22:50 0,7 C 94 % 1032,2 hPa 0,0 l/m 0,0 km/h (0 Bft) W-NW 302 0 min 0,000 mm 0,0 UV-I 0 W/m -0,2 C 0,7 C 0,0 km/h (0 Bft)
08.01.2017 22:55 0,7 C 94 % 1032,3 hPa 0,0 l/m 0,0 km/h (0 Bft) W-NW 302 0 min 0,000 mm 0,0 UV-I 0 W/m -0,2 C 0,7 C 0,0 km/h (0 Bft)
08.01.2017 23:00 0,6 C 94 % 1032,2 hPa 0,0 l/m 0,0 km/h (0 Bft) W-NW 302 0 min 0,000 mm 0,0 UV-I 0 W/m -0,3 C 0,6 C 0,0 km/h (0 Bft)
08.01.2017 23:05 0,6 C 94 % 1032,0 hPa 0,0 l/m 0,0 km/h (0 Bft) W-NW 302 0 min 0,000 mm 0,0 UV-I 0 W/m -0,3 C 0,6 C 0,0 km/h (0 Bft)
08.01.2017 23:10 0,6 C 94 % 1031,9 hPa 0,0 l/m 0,0 km/h (0 Bft) W-NW 302 0 min 0,000 mm 0,0 UV-I 0 W/m -0,3 C 0,6 C 0,0 km/h (0 Bft)
08.01.2017 23:15 0,6 C 94 % 1031,9 hPa 0,0 l/m 0,0 km/h (0 Bft) W-NW 302 0 min 0,000 mm 0,0 UV-I 0 W/m -0,3 C 0,6 C 0,0 km/h (0 Bft)
08.01.2017 23:20 0,6 C 94 % 1031,8 hPa 0,0 l/m 0,0 km/h (0 Bft) W-NW 302 0 min 0,000 mm 0,0 UV-I 0 W/m -0,3 C 0,6 C 0,0 km/h (0 Bft)
08.01.2017 23:25 0,6 C 94 % 1031,8 hPa 0,0 l/m 0,0 km/h (0 Bft) W-NW 302 0 min 0,000 mm 0,0 UV-I 0 W/m -0,3 C 0,6 C 0,0 km/h (0 Bft)
08.01.2017 23:30 0,6 C 94 % 1031,7 hPa 0,0 l/m 0,0 km/h (0 Bft) W-NW 302 0 min 0,000 mm 0,0 UV-I 0 W/m -0,3 C 0,6 C 0,0 km/h (0 Bft)
08.01.2017 23:35 0,6 C 94 % 1031,7 hPa 0,0 l/m 0,0 km/h (0 Bft) W-NW 302 0 min 0,000 mm 0,0 UV-I 0 W/m -0,3 C 0,6 C 0,0 km/h (0 Bft)
08.01.2017 23:40 0,5 C 94 % 1031,6 hPa 0,0 l/m 0,0 km/h (0 Bft) W-NW 302 0 min 0,000 mm 0,0 UV-I 0 W/m -0,4 C 0,5 C 0,0 km/h (0 Bft)
08.01.2017 23:45 0,5 C 94 % 1031,6 hPa 0,0 l/m 0,0 km/h (0 Bft) W-NW 302 0 min 0,000 mm 0,0 UV-I 0 W/m -0,4 C 0,5 C 0,0 km/h (0 Bft)
08.01.2017 23:50 0,5 C 94 % 1031,5 hPa 0,0 l/m 0,0 km/h (0 Bft) W-NW 302 0 min 0,000 mm 0,0 UV-I 0 W/m -0,4 C 0,5 C 0,0 km/h (0 Bft)
08.01.2017 23:55 0,4 C 94 % 1031,5 hPa 0,0 l/m 0,0 km/h (0 Bft) W-NW 302 0 min 0,000 mm 0,0 UV-I 0 W/m -0,5 C 0,4 C 0,0 km/h (0 Bft)
_ Min-Zeit 00:00 14:30 02:35 - 00:10 - - - - - - 00:00 00:00 01:50
Minimum _ -2,9 C 92 % 1029,0 hPa - 0,0 km/h (0 Bft) - - - - - - -3,7 C -2,9 C 0,0 km/h (0 Bft)
_ Max-Zeit 14:30 00:00 22:20 00:00 07:55 - - 00:00 11:00 11:50 13:55 14:15 14:30 04:15
Maximum _ 1,9 C 94 % 1032,3 hPa 0,0 l/m 3,6 km/h
W-NW (1 Bft)
- - 0 min 0,026 mm 0,5 UV-I 88 W/m 0,8 C 1,9 C 11,3 km/h
W-NW (2 Bft)
Durchschnitt _ 0,3 C 93 % 1030,7 hPa #0,0 l/m 0,4 km/h (0 Bft) W - #0 min. #0,152 mm 0,3 UV-I 46 W/m -0,7 C 0,3 C 2,5 km/h (1 Bft)